Location: Grasslands National Park East Block
(49.0708°N, 106.5295°W)
Time: 04:59:17
(UTC-06:00)

Vanguard 1 - Pass Details

Date: 24 September 2019
Orbit: 653 x 3830 km, 34.2° (Epoch: 20 October)

Event Time Altitude Azimuth Distance (km) Brightness Sun altitude
Rises 01:54:59 0° 224° (SW) 7,405 - -39.8°
Reaches altitude 10° 02:00:05 10° 218° (SW) 6,638 - -39.5°
Exits shadow 02:19:24 43° 163° (SSE) 4,702 13.0 -38.3°
Maximum altitude 02:20:32 43° 157° (SSE) 4,673 13.0 -38.2°
Drops below altitude 10° 02:38:34 10° 95° (E) 5,941 14.3 -36.8°
Sets 02:42:46 0° 89° (E) 6,606 14.7 -36.4°
